GW1710 Weather Reports


Display with metric or nautical units.
time (UTC)temp
F
wind
direction
speed
MPH
gust
MPH
rain 1hr
in
rain 24hr
in
rain mn
in
humidity
%
barometer
mb
20260504185049 73 0 2.0 17.0 0.00 0.00 0.00 42 1010.2
20260504184552 73 285 2.0 14.0 0.00 0.00 0.00 43 1010.3
20260504184051 72 0 2.0 14.0 0.00 0.00 0.00 44 1010.4
20260504183551 72 180 1.0 13.0 0.00 0.00 0.00 41 1010.5
20260504183052 72 246 2.0 13.0 0.00 0.00 0.00 40 1010.6
20260504182548 72 294 1.0 9.0 0.00 0.00 0.00 41 1010.5
20260504182050 72 0 0.0 9.0 0.00 0.00 0.00 43 1010.7
20260504181550 72 227 1.0 9.0 0.00 0.00 0.00 44 1010.7
20260504181051 72 250 0.0 7.0 0.00 0.00 0.00 41 1010.8
20260504180552 72 290 1.0 7.0 0.00 0.00 0.00 42 1010.8
20260504180054 71 251 0.0 15.0 0.00 0.00 0.00 43 1010.9
20260504175554 71 215 1.0 15.0 0.00 0.00 0.00 40 1011.0
20260504175052 71 238 1.0 14.0 0.00 0.00 0.00 41 1011.1
20260504174555 71 252 1.0 14.0 0.00 0.00 0.00 41 1011.0
20260504174052 71 0 1.0 14.0 0.00 0.00 0.00 42 1011.2
20260504173551 71 215 1.0 12.0 0.00 0.00 0.00 45 1011.3
20260504173051 70 265 1.0 12.0 0.00 0.00 0.00 43 1011.3
20260504172550 70 269 1.0 12.0 0.00 0.00 0.00 42 1011.6
20260504172050 70 294 0.0 9.0 0.00 0.00 0.00 43 1011.6
20260504171553 70 0 1.0 9.0 0.00 0.00 0.00 42 1011.6
20260504171051 70 0 1.0 8.0 0.00 0.00 0.00 43 1011.7
20260504170550 70 0 0.0 15.0 0.00 0.00 0.00 43 1011.8
20260504151048 65 246 1.0 13.0 0.00 0.00 0.00 45 1013.3
20260504150551 65 207 1.0 11.0 0.00 0.00 0.00 44 1013.3
20260504141051 61 230 1.0 10.0 0.00 0.00 0.00 50 1013.6
20260504140551 61 190 0.0 2.0 0.00 0.00 0.00 53 1013.6
20260504130551 56 0 0.0 4.0 0.00 0.00 0.00 58 1013.8
20260504110553 38 0 0.0 0.0 0.00 0.00 0.00 88 1013.9
20260504100552 36 0 0.0 0.0 0.00 0.00 0.00 88 1014.1
20260504081607 40 0 0.0 0.0 0.00 0.00 0.00 81 1014.4
20260504081050 40 0 0.0 0.0 0.00 0.00 0.00 81 1014.4
20260504080551 39 0 0.0 0.0 0.00 0.00 0.00 81 1014.4
20260504060115 45 0 0.0 0.0 0.00 0.00 0.00 68 1014.5
20260504050550 44 184 0.0 1.0 0.00 0.00 0.00 70 1014.7
20260504050117 45 0 0.0 0.0 0.00 0.00 0.00 70 1014.8
20260504045549 45 0 0.0 0.0 0.00 0.00 0.00 69 1014.8
20260504045048 45 0 0.0 0.0 0.00 0.00 0.00 68 1014.7
20260504044553 45 0 0.0 0.0 0.00 0.00 0.00 69 1014.7
20260504044054 45 0 0.0 0.0 0.00 0.00 0.00 69 1014.6
20260504043551 46 0 0.0 0.0 0.00 0.00 0.00 67 1014.6
20260504043106 46 0 0.0 0.0 0.00 0.00 0.00 68 1014.5
20260504042550 46 0 0.0 0.0 0.00 0.00 0.00 67 1014.6
20260504042051 45 0 0.0 0.0 0.00 0.00 0.00 68 1014.5
20260504041550 45 0 0.0 0.0 0.00 0.00 0.00 68 1014.4
20260504041050 45 0 0.0 0.0 0.00 0.00 0.00 67 1014.3
20260504040550 46 0 0.0 0.0 0.00 0.00 0.00 67 1014.3
20260504040108 46 0 0.0 1.0 0.00 0.00 0.00 67 1014.4
20260504035551 46 0 0.0 1.0 0.00 0.00 0.00 67 1014.3
20260504035051 46 0 0.0 1.0 0.00 0.00 0.00 66 1014.3
20260504034551 47 0 0.0 1.0 0.00 0.00 0.00 66 1014.3
20260504034048 47 0 0.0 1.0 0.00 0.00 0.00 65 1014.3
20260504033548 47 0 0.0 1.0 0.00 0.00 0.00 65 1014.3
20260504033057 47 0 0.0 1.0 0.00 0.00 0.00 65 1014.3
20260504032551 46 0 0.0 1.0 0.00 0.00 0.00 66 1014.2
20260504032052 46 0 0.0 1.0 0.00 0.00 0.00 67 1014.3
20260504031604 46 0 0.0 1.0 0.00 0.00 0.00 66 1014.2
20260504031050 46 0 0.0 1.0 0.00 0.00 0.00 65 1014.1
20260504030551 47 0 0.0 1.0 0.00 0.00 0.00 65 1014.2
20260504030056 46 0 0.0 1.0 0.00 0.00 0.00 65 1014.1
20260504025551 46 0 0.0 1.0 0.00 0.00 0.00 65 1014.1
20260504025050 46 0 0.0 1.0 0.00 0.00 0.00 65 1014.1
20260504024553 47 0 0.0 1.0 0.00 0.00 0.00 66 1014.0
20260504024048 47 0 0.0 1.0 0.00 0.00 0.00 64 1014.0
20260504023548 47 0 0.0 0.0 0.00 0.00 0.00 64 1014.0
20260504023054 48 0 0.0 0.0 0.00 0.00 0.00 63 1014.0
20260504022551 48 0 0.0 1.0 0.00 0.00 0.00 62 1014.1
20260504022050 48 0 0.0 1.0 0.00 0.00 0.00 62 1014.1
20260504021555 48 0 0.0 1.0 0.00 0.00 0.00 62 1014.2
20260504021050 48 0 0.0 1.0 0.00 0.00 0.00 62 1014.2
20260504020550 48 0 0.0 1.0 0.00 0.00 0.00 62 1014.2
20260504020057 48 0 0.0 1.0 0.00 0.00 0.00 62 1014.0
20260504015551 48 0 0.0 1.0 0.00 0.00 0.00 61 1014.1
20260504015051 48 0 0.0 0.0 0.00 0.00 0.00 62 1014.1
20260504014601 49 0 0.0 0.0 0.00 0.00 0.00 60 1014.0
20260504014050 49 0 0.0 0.0 0.00 0.00 0.00 61 1014.0
20260504013551 49 0 0.0 0.0 0.00 0.00 0.00 60 1013.9
20260504013112 49 0 0.0 0.0 0.00 0.00 0.00 59 1013.9
20260504012552 50 0 0.0 0.0 0.00 0.00 0.00 60 1013.8
20260504012050 50 0 0.0 0.0 0.00 0.00 0.00 57 1013.8
20260504011554 50 0 0.0 1.0 0.00 0.00 0.00 57 1013.8
20260504011051 51 0 0.0 1.0 0.00 0.00 0.00 56 1013.7
20260504010551 51 0 0.0 1.0 0.00 0.00 0.00 56 1013.7
20260504010111 51 0 0.0 0.0 0.00 0.00 0.00 56 1013.7
20260504005549 52 0 0.0 0.0 0.00 0.00 0.00 53 1013.7
20260504005051 53 0 0.0 0.0 0.00 0.00 0.00 52 1013.6
20260504004550 53 0 0.0 0.0 0.00 0.00 0.00 50 1013.6
20260504004053 54 0 0.0 0.0 0.00 0.00 0.00 49 1013.5
20260504003550 55 0 0.0 1.0 0.00 0.00 0.00 49 1013.5
20260504003053 55 0 0.0 1.0 0.00 0.00 0.00 47 1013.5
20260504002550 55 0 0.0 1.0 0.00 0.00 0.00 46 1013.4
20260504002050 56 284 0.0 1.0 0.00 0.00 0.00 46 1013.4
20260504001559 56 0 0.0 1.0 0.00 0.00 0.00 45 1013.2
20260504001048 56 279 0.0 2.0 0.00 0.00 0.00 44 1013.2
20260504000550 57 0 0.0 2.0 0.00 0.00 0.00 45 1013.1
20260504000055 57 0 0.0 2.0 0.00 0.00 0.00 44 1013.1
20260503235551 57 284 0.0 2.0 0.00 0.00 0.00 43 1013.1
20260503235048 58 0 0.0 6.0 0.00 0.00 0.00 44 1012.8
20260503234555 58 0 0.0 6.0 0.00 0.00 0.00 43 1012.9
20260503234053 58 0 0.0 7.0 0.00 0.00 0.00 42 1012.9
20260503233551 58 0 0.0 7.0 0.00 0.00 0.00 41 1012.8
20260503233100 59 0 0.0 12.0 0.00 0.00 0.00 42 1012.8
20260503232550 59 0 0.0 12.0 0.00 0.00 0.00 41 1012.7
20260503232050 59 309 1.0 8.0 0.00 0.00 0.00 40 1012.8
20260503231555 59 284 0.0 8.0 0.00 0.00 0.00 41 1012.7
20260503231050 59 0 0.0 8.0 0.00 0.00 0.00 42 1012.8
20260503230550 59 265 0.0 12.0 0.00 0.00 0.00 42 1012.8
20260503230058 59 251 1.0 12.0 0.00 0.00 0.00 41 1012.8
20260503225552 59 0 0.0 8.0 0.00 0.00 0.00 40 1012.8
20260503225047 59 223 1.0 8.0 0.00 0.00 0.00 40 1012.8
20260503224555 59 0 1.0 4.0 0.00 0.00 0.00 40 1012.7
20260503224051 59 0 0.0 8.0 0.00 0.00 0.00 39 1012.8
20260503223551 60 296 0.0 8.0 0.00 0.00 0.00 39 1012.8
20260503223058 60 5 0.0 14.0 0.00 0.00 0.00 40 1012.8
20260503222548 60 0 0.0 14.0 0.00 0.00 0.00 39 1012.8
20260503222050 60 0 2.0 14.0 0.00 0.00 0.00 38 1012.8
20260503221559 60 298 0.0 8.0 0.00 0.00 0.00 41 1012.7
20260503221052 60 0 0.0 12.0 0.00 0.00 0.00 40 1012.7
20260503220552 60 301 0.0 12.0 0.00 0.00 0.00 40 1012.7
20260503215552 60 333 1.0 10.0 0.00 0.00 0.00 38 1012.7
20260503215051 60 256 2.0 10.0 0.00 0.00 0.00 39 1012.7
20260503214558 61 267 0.0 10.0 0.00 0.00 0.00 38 1012.7
20260503214054 60 0 1.0 10.0 0.00 0.00 0.00 40 1012.7
20260503213554 60 302 0.0 10.0 0.00 0.00 0.00 39 1012.7
20260503213055 60 269 1.0 10.0 0.00 0.00 0.00 39 1012.8
20260503212553 60 0 1.0 12.0 0.00 0.00 0.00 38 1012.7
20260503212053 60 282 0.0 12.0 0.00 0.00 0.00 40 1012.6
20260503211551 60 241 0.0 7.0 0.00 0.00 0.00 41 1012.7
20260503211052 60 282 0.0 15.0 0.00 0.00 0.00 38 1012.6
20260503210552 60 0 1.0 15.0 0.00 0.00 0.00 40 1012.7
20260503210058 60 289 2.0 14.0 0.00 0.00 0.00 39 1012.7
20260503205554 60 0 1.0 12.0 0.00 0.00 0.00 39 1012.7
20260503205052 60 281 3.0 12.0 0.00 0.00 0.00 39 1012.6
20260503204609 59 296 0.0 9.0 0.00 0.00 0.00 40 1012.7
20260503204051 59 0 0.0 12.0 0.00 0.00 0.00 38 1012.8
20260503203552 60 246 3.0 12.0 0.00 0.00 0.00 39 1012.8
20260503203101 60 267 1.0 10.0 0.00 0.00 0.00 38 1012.8
20260503202553 60 0 0.0 6.0 0.00 0.00 0.00 41 1012.9
20260503202053 59 0 1.0 12.0 0.00 0.00 0.00 40 1012.9
20260503201558 58 311 1.0 12.0 0.00 0.00 0.00 39 1012.9
20260503201052 59 275 1.0 12.0 0.00 0.00 0.00 38 1012.9
20260503200552 58 254 0.0 14.0 0.00 0.00 0.00 39 1013.1
20260503200053 59 285 3.0 14.0 0.00 0.00 0.00 38 1013.1
20260503195552 58 0 2.0 14.0 0.00 0.00 0.00 38 1013.1
20260503195052 58 0 0.0 6.0 0.00 0.00 0.00 39 1013.1
20260503194614 58 42 1.0 14.0 0.00 0.00 0.00 39 1013.2
20260503194052 58 274 1.0 14.0 0.00 0.00 0.00 39 1013.3
20260503193552 58 0 0.0 7.0 0.00 0.00 0.00 37 1013.3
20260503193100 59 286 0.0 14.0 0.00 0.00 0.00 39 1013.4
20260503192551 58 0 2.0 14.0 0.00 0.00 0.00 39 1013.5
20260503192052 58 311 2.0 16.0 0.00 0.00 0.00 40 1013.4
20260503191602 58 306 1.0 16.0 0.00 0.00 0.00 40 1013.5
20260503191052 58 306 2.0 17.0 0.00 0.00 0.00 40 1013.6
20260503190552 58 331 3.0 17.0 0.00 0.00 0.00 40 1013.6
20260503190101 58 291 1.0 9.0 0.00 0.00 0.00 41 1013.8
20260503185551 57 298 1.0 9.0 0.00 0.00 0.00 40 1013.8